Lawrenceville, GA

6:42 AM EDT on September 20, 2019 (GMT -0400)
Gwinnett County-Briscoe

Weather History for KLZU - August, 2019

Change the Weather History Date:

Wednesday, August 21, 2019

  Actual Average (KWDR) Record (KWDR)
Temperature  
Mean Temperature 81 °F -  
Max Temperature 93 °F 88 °F 102 °F (1983)
Min Temperature 71 °F 66 °F 56 °F (1991)
Cooling Degree Days 16    
Growing Degree Days 31 (Base 50)    
Moisture  
Dew Point 71 °F    
Average Humidity 73    
Maximum Humidity 96    
Minimum Humidity 48    
Precipitation  
Precipitation 0.00 in - - ()
Sea Level Pressure  
Sea Level Pressure 30.10 in    
Wind  
Wind Speed 6 mph (SW)    
Max Wind Speed 10 mph    
Max Gust Speed -    
Visibility 10 miles    
Events      
Averages and records for this station are not official NWS values.
T = Trace of Precipitation, MM = Missing Value Source: NWS Daily Summary

Daily Weather History Graph

Daily Weather History Graph

Search for Another Location

Airport or City:

Astronomy

Aug. 21, 2019 Rise Set
Actual Time 7:01 AM EDT 8:15 PM EDT
Civil Twilight 6:35 AM EDT 8:41 PM EDT
Nautical Twilight 6:04 AM EDT 9:12 PM EDT
Astronomical Twilight 5:32 AM EDT 9:45 PM EDT
Moon 11:49 PM EDT (8/21) 12:21 PM EDT (8/21)
Length of Visible Light 14h 06m
Length of Day
13h 14m
Waning Gibbous, 69% of the Moon is Illuminated
Aug 21
Waning Gibbous
Aug 23
Last Quarter
Aug 30
New
Sep 5
First Quarter
Sep 14
Full

Hourly Weather History & Observations

Time (EDT) Temp. Heat Index Dew Point Humidity Pressure Visibility Wind Dir Wind Speed Gust Speed Precip Events Conditions
12:56 AM 75.9 °F - 72.0 °F 87% 30.13 in 10.0 mi SW 5.8 mph - N/A   Clear
1:56 AM 77.0 °F - 70.0 °F 79% 30.11 in 10.0 mi WSW 10.4 mph - N/A   Clear
2:56 AM 73.9 °F - 70.0 °F 87% 30.11 in 10.0 mi WSW 5.8 mph - N/A   Clear
3:56 AM 73.0 °F - 70.0 °F 90% 30.10 in 10.0 mi SW 4.6 mph - N/A   Clear
4:56 AM 72.0 °F - 70.0 °F 93% 30.09 in 10.0 mi SW 5.8 mph - N/A   Clear
5:56 AM 71.1 °F - 70.0 °F 96% 30.11 in 10.0 mi SW 4.6 mph - N/A   Clear
6:56 AM 71.1 °F - 70.0 °F 96% 30.12 in 10.0 mi SW 5.8 mph - N/A   Clear
7:56 AM 73.0 °F - 71.1 °F 93% 30.13 in 10.0 mi West 4.6 mph - N/A   Clear
8:56 AM 77.0 °F - 72.0 °F 84% 30.14 in 10.0 mi WSW 6.9 mph - N/A   Clear
9:56 AM 80.1 °F 84.2 °F 73.0 °F 79% 30.13 in 10.0 mi SW 10.4 mph - N/A   Scattered Clouds
10:56 AM 82.0 °F 87.4 °F 73.0 °F 74% 30.15 in 10.0 mi WSW 6.9 mph - N/A   Scattered Clouds
11:56 AM 84.0 °F 89.6 °F 72.0 °F 67% 30.15 in 10.0 mi Variable 5.8 mph - N/A   Scattered Clouds
12:56 PM 87.1 °F 93.6 °F 72.0 °F 61% 30.14 in 10.0 mi West 9.2 mph - N/A   Mostly Cloudy
1:56 PM 88.0 °F 94.7 °F 72.0 °F 59% 30.12 in 10.0 mi West 8.1 mph - N/A   Scattered Clouds
2:56 PM 90.0 °F 95.4 °F 70.0 °F 52% 30.10 in 10.0 mi SW 9.2 mph - N/A   Scattered Clouds
3:56 PM 91.0 °F 96.6 °F 70.0 °F 50% 30.07 in 10.0 mi Variable 4.6 mph - N/A   Mostly Cloudy
4:56 PM 89.1 °F 94.1 °F 70.0 °F 53% 30.06 in 6.0 mi NW 4.6 mph - N/A   Haze
5:56 PM 91.0 °F 95.6 °F 69.1 °F 48% 30.05 in 10.0 mi Calm Calm - N/A   Scattered Clouds
7:56 PM 86.0 °F 90.1 °F 69.1 °F 57% 30.05 in 10.0 mi South 5.8 mph - N/A   Clear
8:56 PM 82.9 °F 87.0 °F 70.0 °F 65% 30.06 in 10.0 mi South 4.6 mph - N/A   Clear
9:56 PM 82.0 °F 85.9 °F 70.0 °F 67% 30.09 in 10.0 mi SW 6.9 mph - N/A   Clear
10:56 PM 80.1 °F 83.2 °F 70.0 °F 71% 30.09 in 10.0 mi SW 5.8 mph - N/A   Scattered Clouds
11:56 PM 79.0 °F - 71.1 °F 77% 30.09 in 10.0 mi SW 4.6 mph - N/A   Clear